Flag for Brazil Weather past 2 weeks in Belo Horizonte, Minas Gerais, Brazil

Now
59 °F

Clear.


Feels Like: 59 °F
Forecast: 58 / 78 °F
Wind: 2 mph from Southeast

Location: Belo Horizonte Airport

Current Time: May 24, 2015 at 4:53:38 AM

Latest Report: May 24, 2015 at 4:00 AM


Visibility: 10 mi

Pressure: 30.12 "Hg

Humidity: 82%

Dew point: 54 °F

Location of Belo HorizonteLocation

Historic Weather in Belo Horizonte — Graph

°F

Belo Horizonte temperature yesterday

Maximum temperature yesterday: 73 °F (at 2:00 PM)
Minimum temperature yesterday: 57 °F (at 4:00 AM)
Average temperature yesterday: 64 °F

Past Weeks' High & Low Weather Summary

 TemperatureHumidityPressure
High88 °F (May 20, 5:00 PM)94% (May 9, 4:00 AM)30.36 "Hg (May 9, 4:00 AM)
Low57 °F (May 13, 5:00 AM)33% (May 20, 5:00 PM)29.98 "Hg (May 11, 2:00 PM)
Average66 °F72%30.19 "Hg
* Reported May 9 4:00 AM — May 24 4:00 AM, Belo Horizonte, Weather by CustomWeather, © 2015

Note: Actual official high and low records may vary slightly from our data, if they occured in-between our weather recording intervals... More about our weather records

Advertising

Belo Horizonte weather history for previous 24 hours

 ConditionsComfort  
Time TempWeatherWind HumidityBarometerVisibility
4:00 AM
Sun, May 24
59 °FClear.2 mph82%30.12 "Hg10 mi
3:00 AM59 °FClear.2 mph82%30.15 "Hg10 mi
2:00 AM61 °FClear.5 mph77%30.15 "Hg10 mi
1:00 AM61 °FClear.3 mph83%30.18 "Hg10 mi
12:00 AM61 °FClear.3 mph83%30.18 "Hg10 mi
11:00 PM
Sat, May 23
63 °FClear.5 mph73%30.18 "Hg10 mi
10:00 PM63 °FClear.3 mph77%30.18 "Hg10 mi
9:00 PM63 °FClear.3 mph73%30.18 "Hg10 mi
8:00 PM64 °FClear.5 mph68%30.21 "Hg10 mi
7:00 PM66 °FClear.7 mph60%30.18 "Hg10 mi
6:00 PM68 °FPassing clouds.9 mph60%30.18 "HgN/A
5:00 PM70 °FScattered clouds.6 mph57%30.15 "HgN/A
4:00 PM72 °FScattered clouds.9 mph53%30.15 "HgN/A
3:00 PM72 °FBroken clouds.6 mph53%30.18 "HgN/A
2:00 PM73 °FPartly sunny.6 mph50%30.18 "HgN/A
1:00 PM72 °FPartly sunny.6 mph53%30.21 "HgN/A
12:00 PM72 °FScattered clouds.7 mph53%30.24 "HgN/A
11:00 AM70 °FScattered clouds.7 mph60%30.27 "HgN/A
10:00 AM70 °FScattered clouds.5 mph60%30.30 "HgN/A
9:00 AM66 °FSunny.5 mph73%30.27 "Hg10 mi
8:00 AM59 °FSunny.5 mph88%30.27 "Hg10 mi
7:00 AM57 °FSunny.2 mph88%30.24 "Hg10 mi
6:00 AM57 °FClear.3 mph88%30.24 "Hg10 mi
5:00 AM57 °FClear.3 mph88%30.24 "Hg10 mi
4:00 AM57 °FClear.3 mph88%30.24 "Hg10 mi
Weather by CustomWeather, © 2015

See weather overviewHow to use our weather pages